Time,TemperatureF,DewpointF,PressureIn,WindDirection,WindDirectionDegrees,WindSpeedMPH,WindSpeedGustMPH,Humidity,HourlyPrecipIn,Conditions,Clouds,dailyrainin,SolarRadiationWatts/m^2,SoftwareType,DateUTC
2013-04-29 00:02:00,59.9,42.2,29.63,NE,34,3.0,6.0,52,0.00,,,0.00,0,Wunderground v.1.15,2013-04-29 05:02:00,
2013-04-29 00:07:00,59.8,42.1,29.63,NNE,22,3.0,6.0,52,0.00,,,0.00,0,Wunderground v.1.15,2013-04-29 05:07:00,
2013-04-29 00:12:00,59.7,42.0,29.64,North,5,2.0,6.0,52,0.00,,,0.00,0,Wunderground v.1.15,2013-04-29 05:12:00,
2013-04-29 00:17:00,59.9,41.7,29.64,North,355,5.0,6.0,51,0.00,,,0.00,0,Wunderground v.1.15,2013-04-29 05:17:00,
2013-04-29 00:22:00,60.1,41.9,29.64,NNW,336,6.0,6.0,51,0.00,,,0.00,0,Wunderground v.1.15,2013-04-29 05:22:00,
2013-04-29 00:28:00,60.1,41.9,29.65,NNW,336,4.0,8.0,51,0.00,,,0.00,0,Wunderground v.1.15,2013-04-29 05:28:00,
2013-04-29 00:33:00,59.8,42.1,29.65,North,355,7.0,7.0,52,0.00,,,0.00,0,Wunderground v.1.15,2013-04-29 05:33:00,
2013-04-29 00:38:00,59.5,41.9,29.64,North,5,4.0,8.0,52,0.00,,,0.00,0,Wunderground v.1.15,2013-04-29 05:38:00,
2013-04-29 00:43:00,59.3,42.2,29.65,North,11,9.0,11.0,53,0.00,,,0.00,0,Wunderground v.1.15,2013-04-29 05:43:00,
2013-04-29 00:49:00,58.9,42.3,29.65,North,360,4.0,11.0,54,0.00,,,0.00,0,Wunderground v.1.15,2013-04-29 05:49:00,
2013-04-29 00:54:00,58.6,42.5,29.65,North,5,4.0,11.0,55,0.00,,,0.00,0,Wunderground v.1.15,2013-04-29 05:54:00,
2013-04-29 00:59:00,58.3,42.2,29.64,NNE,28,6.0,11.0,55,0.00,,,0.00,0,Wunderground v.1.15,2013-04-29 05:59:00,
2013-04-29 01:04:00,58.0,42.4,29.64,North,11,7.0,12.0,56,0.00,,,0.00,0,Wunderground v.1.15,2013-04-29 06:04:00,
2013-04-29 01:09:00,57.7,42.6,29.63,North,355,11.0,12.0,57,0.00,,,0.00,0,Wunderground v.1.15,2013-04-29 06:09:00,
2013-04-29 01:15:00,57.4,42.7,29.64,NNE,17,8.0,12.0,58,0.00,,,0.00,0,Wunderground v.1.15,2013-04-29 06:15:00,
2013-04-29 01:20:00,57.2,42.5,29.64,NNE,15,8.0,8.0,58,0.00,,,0.00,0,Wunderground v.1.15,2013-04-29 06:20:00,
2013-04-29 01:25:00,56.9,42.3,29.64,North,355,8.0,9.0,58,0.00,,,0.00,0,Wunderground v.1.15,2013-04-29 06:25:00,
2013-04-29 01:30:00,56.6,42.4,29.64,North,351,7.0,7.0,59,0.00,,,0.00,0,Wunderground v.1.15,2013-04-29 06:30:00,
2013-04-29 01:35:00,56.3,42.6,29.65,North,351,5.0,9.0,60,0.00,,,0.00,0,Wunderground v.1.15,2013-04-29 06:35:00,
2013-04-29 01:41:00,56.0,42.3,29.66,NNW,338,5.0,7.0,60,0.00,,,0.00,0,Wunderground v.1.15,2013-04-29 06:41:00,
2013-04-29 01:46:00,55.9,42.6,29.66,NNW,333,4.0,7.0,61,0.00,,,0.00,0,Wunderground v.1.15,2013-04-29 06:46:00,
2013-04-29 01:51:00,55.7,42.5,29.66,North,5,5.0,8.0,61,0.00,,,0.00,0,Wunderground v.1.15,2013-04-29 06:51:00,
2013-04-29 01:56:00,55.5,42.3,29.66,NNW,344,5.0,8.0,61,0.00,,,0.00,0,Wunderground v.1.15,2013-04-29 06:56:00,
2013-04-29 02:01:00,55.2,42.0,29.65,North,349,7.0,9.0,61,0.00,,,0.00,0,Wunderground v.1.15,2013-04-29 07:01:00,
2013-04-29 02:06:00,54.9,41.7,29.65,NNW,337,6.0,9.0,61,0.00,,,0.00,0,Wunderground v.1.15,2013-04-29 07:06:00,
2013-04-29 02:11:00,54.7,41.5,29.65,NNE,13,4.0,8.0,61,0.00,,,0.00,0,Wunderground v.1.15,2013-04-29 07:11:00,
2013-04-29 02:16:00,54.5,41.3,29.65,NNE,24,3.0,8.0,61,0.00,,,0.00,0,Wunderground v.1.15,2013-04-29 07:16:00,
2013-04-29 02:21:00,54.4,41.6,29.63,NNE,26,7.0,10.0,62,0.00,,,0.00,0,Wunderground v.1.15,2013-04-29 07:21:00,
2013-04-29 02:26:00,54.2,41.5,29.62,NNE,31,8.0,10.0,62,0.00,,,0.00,0,Wunderground v.1.15,2013-04-29 07:26:00,
2013-04-29 02:31:00,53.9,41.6,29.61,NNE,28,5.0,9.0,63,0.00,,,0.00,0,Wunderground v.1.15,2013-04-29 07:31:00,
2013-04-29 02:36:00,53.6,41.3,29.62,NNW,343,5.0,12.0,63,0.00,,,0.00,0,Wunderground v.1.15,2013-04-29 07:36:00,
2013-04-29 02:41:00,53.3,41.4,29.62,North,355,5.0,8.0,64,0.00,,,0.00,0,Wunderground v.1.15,2013-04-29 07:41:00,
2013-04-29 02:46:00,53.1,41.2,29.63,NNW,338,9.0,12.0,64,0.00,,,0.00,0,Wunderground v.1.15,2013-04-29 07:46:00,
2013-04-29 02:51:00,52.9,41.0,29.63,NNW,346,6.0,11.0,64,0.00,,,0.00,0,Wunderground v.1.15,2013-04-29 07:51:00,
2013-04-29 02:56:00,52.6,41.2,29.63,NNW,327,7.0,11.0,65,0.00,,,0.00,0,Wunderground v.1.15,2013-04-29 07:56:00,
2013-04-29 03:01:00,52.5,41.5,29.64,NW,321,4.0,7.0,66,0.00,,,0.00,0,Wunderground v.1.15,2013-04-29 08:01:00,
2013-04-29 03:06:00,52.4,41.4,29.64,North,5,2.0,7.0,66,0.00,,,0.00,0,Wunderground v.1.15,2013-04-29 08:06:00,
2013-04-29 03:11:00,52.3,41.3,29.63,North,5,5.0,6.0,66,0.00,,,0.00,0,Wunderground v.1.15,2013-04-29 08:11:00,
2013-04-29 03:16:00,52.2,41.2,29.63,NE,38,6.0,8.0,66,0.00,,,0.00,0,Wunderground v.1.15,2013-04-29 08:16:00,
2013-04-29 03:21:00,52.2,41.6,29.63,North,360,4.0,7.0,67,0.00,,,0.00,0,Wunderground v.1.15,2013-04-29 08:21:00,
2013-04-29 03:26:00,52.1,41.5,29.63,North,5,3.0,9.0,67,0.00,,,0.00,0,Wunderground v.1.15,2013-04-29 08:26:00,
2013-04-29 03:31:00,52.1,41.9,29.64,NNW,341,3.0,5.0,68,0.00,,,0.00,0,Wunderground v.1.15,2013-04-29 08:31:00,
2013-04-29 03:36:00,51.9,41.7,29.64,NNW,343,10.0,11.0,68,0.00,,,0.00,0,Wunderground v.1.15,2013-04-29 08:36:00,
2013-04-29 03:41:00,51.9,42.0,29.63,North,5,8.0,10.0,69,0.00,,,0.00,0,Wunderground v.1.15,2013-04-29 08:41:00,
2013-04-29 03:46:00,51.9,42.0,29.62,North,9,8.0,12.0,69,0.00,,,0.00,0,Wunderground v.1.15,2013-04-29 08:46:00,
2013-04-29 03:51:00,51.8,41.9,29.62,North,11,13.0,15.0,69,0.00,,,0.00,0,Wunderground v.1.15,2013-04-29 08:51:00,
2013-04-29 03:56:00,51.8,41.9,29.62,NNE,21,9.0,15.0,69,0.00,,,0.00,0,Wunderground v.1.15,2013-04-29 08:56:00,
2013-04-29 04:01:00,51.7,41.9,29.62,North,10,6.0,9.0,69,0.00,,,0.00,0,Wunderground v.1.15,2013-04-29 09:01:00,
2013-04-29 04:06:00,51.7,42.2,29.64,NNW,338,5.0,10.0,70,0.00,,,0.00,0,Wunderground v.1.15,2013-04-29 09:06:00,
2013-04-29 04:11:00,51.6,42.1,29.65,NNE,13,7.0,7.0,70,0.00,,,0.00,0,Wunderground v.1.15,2013-04-29 09:11:00,
2013-04-29 04:16:00,51.6,42.1,29.65,North,5,4.0,10.0,70,0.00,,,0.00,0,Wunderground v.1.15,2013-04-29 09:16:00,
2013-04-29 04:21:00,51.6,42.1,29.66,NNW,333,5.0,7.0,70,0.00,,,0.00,0,Wunderground v.1.15,2013-04-29 09:21:00,
2013-04-29 04:26:00,51.5,42.0,29.66,NNW,342,2.0,8.0,70,0.00,,,0.00,0,Wunderground v.1.15,2013-04-29 09:26:00,
2013-04-29 04:31:00,51.4,41.9,29.65,North,5,4.0,4.0,70,0.00,,,0.00,0,Wunderground v.1.15,2013-04-29 09:31:00,
2013-04-29 04:36:00,51.3,41.8,29.64,NNE,26,7.0,11.0,70,0.00,,,0.00,0,Wunderground v.1.15,2013-04-29 09:36:00,
2013-04-29 04:41:00,51.1,42.0,29.64,NE,34,5.0,11.0,71,0.00,,,0.00,0,Wunderground v.1.15,2013-04-29 09:41:00,
2013-04-29 04:46:00,50.9,41.8,29.65,NNE,12,4.0,11.0,71,0.00,,,0.00,0,Wunderground v.1.15,2013-04-29 09:46:00,
2013-04-29 04:51:00,50.9,42.2,29.65,NNE,15,4.0,8.0,72,0.00,,,0.00,0,Wunderground v.1.15,2013-04-29 09:51:00,
2013-04-29 04:56:00,50.8,42.1,29.65,North,360,6.0,9.0,72,0.00,,,0.00,0,Wunderground v.1.15,2013-04-29 09:56:00,
2013-04-29 05:01:00,50.8,42.1,29.65,NNE,13,4.0,7.0,72,0.00,,,0.00,0,Wunderground v.1.15,2013-04-29 10:01:00,
2013-04-29 05:06:00,50.8,42.1,29.64,North,360,5.0,11.0,72,0.00,,,0.00,0,Wunderground v.1.15,2013-04-29 10:06:00,
2013-04-29 05:11:00,50.8,42.1,29.64,NE,41,8.0,10.0,72,0.00,,,0.00,0,Wunderground v.1.15,2013-04-29 10:11:00,
2013-04-29 05:16:00,50.8,42.1,29.64,NNE,23,5.0,11.0,72,0.00,,,0.00,0,Wunderground v.1.15,2013-04-29 10:16:00,
2013-04-29 05:21:00,50.7,42.0,29.65,NNE,17,7.0,8.0,72,0.00,,,0.00,0,Wunderground v.1.15,2013-04-29 10:21:00,
2013-04-29 05:26:00,50.7,42.0,29.65,North,9,6.0,9.0,72,0.00,,,0.00,0,Wunderground v.1.15,2013-04-29 10:26:00,
2013-04-29 05:31:00,50.6,41.9,29.66,North,350,7.0,8.0,72,0.00,,,0.00,0,Wunderground v.1.15,2013-04-29 10:31:00,
2013-04-29 05:36:00,50.4,41.7,29.65,North,349,5.0,11.0,72,0.00,,,0.00,0,Wunderground v.1.15,2013-04-29 10:36:00,
2013-04-29 05:41:00,50.1,41.4,29.65,North,355,8.0,10.0,72,0.00,,,0.00,0,Wunderground v.1.15,2013-04-29 10:41:00,
2013-04-29 05:46:00,49.9,41.6,29.64,North,360,2.0,10.0,73,0.00,,,0.00,0,Wunderground v.1.15,2013-04-29 10:46:00,
2013-04-29 05:51:00,49.6,41.3,29.64,North,9,7.0,10.0,73,0.00,,,0.00,0,Wunderground v.1.15,2013-04-29 10:51:00,
2013-04-29 05:56:00,49.5,41.2,29.64,North,355,6.0,10.0,73,0.00,,,0.00,0,Wunderground v.1.15,2013-04-29 10:56:00,
2013-04-29 06:01:00,49.3,41.4,29.64,NNE,21,2.0,5.0,74,0.00,,,0.00,0,Wunderground v.1.15,2013-04-29 11:01:00,
2013-04-29 06:06:00,49.2,41.3,29.64,North,11,4.0,6.0,74,0.00,,,0.00,0,Wunderground v.1.15,2013-04-29 11:06:00,
2013-04-29 06:11:00,49.1,41.2,29.64,North,10,3.0,6.0,74,0.00,,,0.00,0,Wunderground v.1.15,2013-04-29 11:11:00,
2013-04-29 06:16:00,49.0,41.1,29.65,North,360,4.0,6.0,74,0.00,,,0.00,0,Wunderground v.1.15,2013-04-29 11:16:00,
2013-04-29 06:21:00,49.0,41.1,29.66,North,360,2.0,4.0,74,0.00,,,0.00,0,Wunderground v.1.15,2013-04-29 11:21:00,
2013-04-29 06:26:00,48.9,41.3,29.66,North,355,1.0,5.0,75,0.00,,,0.00,0,Wunderground v.1.15,2013-04-29 11:26:00,
2013-04-29 06:31:00,48.8,40.9,29.66,North,355,0.0,2.0,74,0.00,,,0.00,0,Wunderground v.1.15,2013-04-29 11:31:00,
2013-04-29 06:36:00,48.7,41.1,29.65,North,355,0.0,2.0,75,0.00,,,0.00,0,Wunderground v.1.15,2013-04-29 11:36:00,
2013-04-29 06:41:00,48.5,41.3,29.65,North,355,0.0,2.0,76,0.00,,,0.00,0,Wunderground v.1.15,2013-04-29 11:41:00,
2013-04-29 06:46:00,48.5,41.3,29.66,North,355,3.0,3.0,76,0.00,,,0.00,0,Wunderground v.1.15,2013-04-29 11:46:00,
2013-04-29 06:51:00,48.6,41.4,29.65,North,355,4.0,4.0,76,0.00,,,0.00,5,Wunderground v.1.15,2013-04-29 11:51:00,
2013-04-29 06:56:00,48.5,41.3,29.65,NNE,19,4.0,6.0,76,0.00,,,0.00,11,Wunderground v.1.15,2013-04-29 11:56:00,
2013-04-29 07:01:00,48.7,41.1,29.64,NNE,28,7.0,7.0,75,0.00,,,0.00,18,Wunderground v.1.15,2013-04-29 12:01:00,
2013-04-29 07:06:00,48.7,41.1,29.64,NNE,25,5.0,11.0,75,0.00,,,0.00,26,Wunderground v.1.15,2013-04-29 12:06:00,
2013-04-29 07:11:00,48.6,41.0,29.64,NNE,26,3.0,6.0,75,0.00,,,0.00,30,Wunderground v.1.15,2013-04-29 12:11:00,
2013-04-29 07:16:00,48.5,40.6,29.65,North,5,1.0,6.0,74,0.00,,,0.00,37,Wunderground v.1.15,2013-04-29 12:16:00,
2013-04-29 07:21:00,48.5,40.6,29.65,North,5,0.0,2.0,74,0.00,,,0.00,47,Wunderground v.1.15,2013-04-29 12:21:00,
2013-04-29 07:26:00,48.5,40.2,29.64,North,5,1.0,2.0,73,0.00,,,0.00,62,Wunderground v.1.15,2013-04-29 12:26:00,
2013-04-29 07:31:00,48.7,40.4,29.64,North,5,2.0,3.0,73,0.00,,,0.00,107,Wunderground v.1.15,2013-04-29 12:31:00,
2013-04-29 07:36:00,48.9,40.6,29.64,North,5,4.0,5.0,73,0.00,,,0.00,125,Wunderground v.1.15,2013-04-29 12:36:00,
2013-04-29 07:41:00,49.3,40.7,29.63,NNE,28,2.0,6.0,72,0.00,,,0.00,56,Wunderground v.1.15,2013-04-29 12:41:00,
2013-04-29 07:46:00,49.4,40.7,29.62,NE,42,5.0,6.0,72,0.00,,,0.00,74,Wunderground v.1.15,2013-04-29 12:46:00,
2013-04-29 07:51:00,49.5,40.5,29.62,ENE,58,2.0,5.0,71,0.00,,,0.00,125,Wunderground v.1.15,2013-04-29 12:51:00,
2013-04-29 07:56:00,49.8,40.4,29.61,NNE,27,8.0,11.0,70,0.00,,,0.00,236,Wunderground v.1.15,2013-04-29 12:56:00,
2013-04-29 08:01:00,50.5,40.3,29.61,NE,50,5.0,6.0,68,0.00,,,0.00,218,Wunderground v.1.15,2013-04-29 13:01:00,
2013-04-29 08:06:00,50.8,39.8,29.61,ENE,67,8.0,10.0,66,0.00,,,0.00,95,Wunderground v.1.15,2013-04-29 13:06:00,
2013-04-29 08:11:00,50.5,39.2,29.61,East,80,6.0,9.0,65,0.00,,,0.00,113,Wunderground v.1.15,2013-04-29 13:11:00,
2013-04-29 08:16:00,50.6,39.3,29.62,ENE,59,2.0,9.0,65,0.00,,,0.00,225,Wunderground v.1.15,2013-04-29 13:16:00,
2013-04-29 08:21:00,51.2,39.8,29.62,ENE,67,2.0,8.0,65,0.00,,,0.00,339,Wunderground v.1.15,2013-04-29 13:21:00,
2013-04-29 08:26:00,51.7,39.1,29.62,ENE,59,5.0,9.0,62,0.00,,,0.00,179,Wunderground v.1.15,2013-04-29 13:26:00,
2013-04-29 08:31:00,51.8,39.6,29.61,East,80,9.0,10.0,63,0.00,,,0.00,204,Wunderground v.1.15,2013-04-29 13:31:00,
2013-04-29 08:36:00,51.9,39.3,29.61,ENE,63,8.0,10.0,62,0.00,,,0.00,181,Wunderground v.1.15,2013-04-29 13:36:00,
2013-04-29 08:41:00,52.0,39.4,29.61,ENE,76,3.0,7.0,62,0.00,,,0.00,209,Wunderground v.1.15,2013-04-29 13:41:00,
2013-04-29 08:46:00,52.1,39.5,29.61,ENE,73,5.0,7.0,62,0.00,,,0.00,206,Wunderground v.1.15,2013-04-29 13:46:00,
2013-04-29 08:51:00,52.2,39.1,29.61,NE,36,7.0,7.0,61,0.00,,,0.00,185,Wunderground v.1.15,2013-04-29 13:51:00,
2013-04-29 08:56:00,52.4,39.8,29.60,ENE,69,3.0,8.0,62,0.00,,,0.00,176,Wunderground v.1.15,2013-04-29 13:56:00,
2013-04-29 09:01:00,52.5,39.8,29.61,NE,38,6.0,7.0,62,0.00,,,0.00,176,Wunderground v.1.15,2013-04-29 14:01:00,
2013-04-29 09:06:00,52.6,39.9,29.60,NE,41,3.0,10.0,62,0.00,,,0.00,183,Wunderground v.1.15,2013-04-29 14:06:00,
2013-04-29 09:11:00,52.7,40.5,29.60,NE,43,5.0,6.0,63,0.00,,,0.00,163,Wunderground v.1.15,2013-04-29 14:11:00,
2013-04-29 09:16:00,52.9,40.2,29.60,NE,35,4.0,7.0,62,0.00,,,0.00,181,Wunderground v.1.15,2013-04-29 14:16:00,
2013-04-29 09:21:00,53.2,40.5,29.60,NE,37,5.0,7.0,62,0.00,,,0.00,308,Wunderground v.1.15,2013-04-29 14:21:00,
2013-04-29 09:26:00,53.9,40.8,29.59,NE,42,7.0,10.0,61,0.00,,,0.00,543,Wunderground v.1.15,2013-04-29 14:26:00,
2013-04-29 09:31:00,54.8,40.7,29.59,ENE,77,7.0,9.0,59,0.00,,,0.00,260,Wunderground v.1.15,2013-04-29 14:31:00,
2013-04-29 09:36:00,54.7,39.8,29.59,ENE,60,9.0,10.0,57,0.00,,,0.00,206,Wunderground v.1.15,2013-04-29 14:36:00,
2013-04-29 09:41:00,54.2,39.7,29.58,ENE,75,5.0,8.0,58,0.00,,,0.00,216,Wunderground v.1.15,2013-04-29 14:41:00,
2013-04-29 09:46:00,54.5,41.7,29.58,ENE,67,7.0,8.0,62,0.00,,,0.00,628,Wunderground v.1.15,2013-04-29 14:46:00,
2013-04-29 09:51:00,55.5,40.5,29.58,NE,51,6.0,8.0,57,0.00,,,0.00,487,Wunderground v.1.15,2013-04-29 14:51:00,
2013-04-29 09:56:00,55.6,40.1,29.58,NE,38,4.0,10.0,56,0.00,,,0.00,478,Wunderground v.1.15,2013-04-29 14:56:00,
2013-04-29 10:01:00,55.7,40.2,29.58,NNE,30,7.0,10.0,56,0.00,,,0.00,371,Wunderground v.1.15,2013-04-29 15:01:00,
2013-04-29 10:06:00,56.0,40.5,29.58,NE,38,3.0,10.0,56,0.00,,,0.00,301,Wunderground v.1.15,2013-04-29 15:06:00,
2013-04-29 10:11:00,56.4,40.4,29.58,NE,40,5.0,6.0,55,0.00,,,0.00,598,Wunderground v.1.15,2013-04-29 15:11:00,
2013-04-29 10:16:00,57.0,41.0,29.57,ENE,61,4.0,9.0,55,0.00,,,0.00,675,Wunderground v.1.15,2013-04-29 15:16:00,
2013-04-29 10:21:00,57.7,41.2,29.57,ENE,59,3.0,7.0,54,0.00,,,0.00,691,Wunderground v.1.15,2013-04-29 15:21:00,
2013-04-29 10:26:00,58.5,41.4,29.57,ENE,58,7.0,8.0,53,0.00,,,0.00,724,Wunderground v.1.15,2013-04-29 15:26:00,
2013-04-29 10:31:00,59.3,42.6,29.56,ENE,65,5.0,7.0,54,0.00,,,0.00,744,Wunderground v.1.15,2013-04-29 15:31:00,
2013-04-29 10:36:00,59.9,42.7,29.56,ENE,65,8.0,9.0,53,0.00,,,0.00,719,Wunderground v.1.15,2013-04-29 15:36:00,
2013-04-29 10:41:00,60.6,42.4,29.56,NE,45,5.0,7.0,51,0.00,,,0.00,731,Wunderground v.1.15,2013-04-29 15:41:00,
2013-04-29 10:46:00,61.1,42.3,29.56,NE,45,2.0,9.0,50,0.00,,,0.00,742,Wunderground v.1.15,2013-04-29 15:46:00,
2013-04-29 10:51:00,61.4,43.1,29.56,NE,35,4.0,6.0,51,0.00,,,0.00,745,Wunderground v.1.15,2013-04-29 15:51:00,
2013-04-29 10:56:00,62.0,43.7,29.55,East,90,8.0,9.0,51,0.00,,,0.00,752,Wunderground v.1.15,2013-04-29 15:56:00,
2013-04-29 11:01:00,61.9,43.0,29.56,ENE,71,4.0,7.0,50,0.00,,,0.00,761,Wunderground v.1.15,2013-04-29 16:01:00,
2013-04-29 11:06:00,62.3,43.9,29.56,East,80,6.0,10.0,51,0.00,,,0.00,775,Wunderground v.1.15,2013-04-29 16:06:00,
2013-04-29 11:11:00,63.4,46.5,29.57,East,96,5.0,8.0,54,0.00,,,0.00,784,Wunderground v.1.15,2013-04-29 16:11:00,
2013-04-29 11:16:00,64.0,43.4,29.56,SE,133,9.0,11.0,47,0.00,,,0.00,795,Wunderground v.1.15,2013-04-29 16:16:00,
2013-04-29 11:21:00,64.0,45.5,29.56,SE,134,2.0,10.0,51,0.00,,,0.00,805,Wunderground v.1.15,2013-04-29 16:21:00,
2013-04-29 11:26:00,64.2,45.2,29.56,SSE,147,6.0,15.0,50,0.00,,,0.00,816,Wunderground v.1.15,2013-04-29 16:26:00,
2013-04-29 11:31:00,64.6,45.0,29.56,SE,131,12.0,12.0,49,0.00,,,0.00,824,Wunderground v.1.15,2013-04-29 16:31:00,
2013-04-29 11:36:00,65.1,46.0,29.55,SE,134,14.0,15.0,50,0.00,,,0.00,835,Wunderground v.1.15,2013-04-29 16:36:00,
2013-04-29 11:41:00,65.2,45.5,29.55,SE,129,14.0,20.0,49,0.00,,,0.00,844,Wunderground v.1.15,2013-04-29 16:41:00,
2013-04-29 11:46:00,65.4,46.8,29.54,SE,146,18.0,20.0,51,0.00,,,0.00,853,Wunderground v.1.15,2013-04-29 16:46:00,
2013-04-29 11:51:00,65.6,46.5,29.54,SSE,155,14.0,17.0,50,0.00,,,0.00,861,Wunderground v.1.15,2013-04-29 16:51:00,
2013-04-29 11:56:00,65.4,46.8,29.54,SE,126,12.0,18.0,51,0.00,,,0.00,870,Wunderground v.1.15,2013-04-29 16:56:00,
2013-04-29 12:01:00,65.7,46.5,29.54,East,99,14.0,16.0,50,0.00,,,0.00,877,Wunderground v.1.15,2013-04-29 17:01:00,
2013-04-29 12:06:00,66.0,47.3,29.54,SSE,156,11.0,17.0,51,0.00,,,0.00,886,Wunderground v.1.15,2013-04-29 17:06:00,
2013-04-29 12:11:00,66.3,47.1,29.54,South,169,12.0,15.0,50,0.00,,,0.00,893,Wunderground v.1.15,2013-04-29 17:11:00,
2013-04-29 12:16:00,66.3,44.9,29.54,South,174,12.0,17.0,46,0.00,,,0.00,904,Wunderground v.1.15,2013-04-29 17:16:00,
2013-04-29 12:21:00,66.6,46.8,29.54,SE,132,12.0,15.0,49,0.00,,,0.00,909,Wunderground v.1.15,2013-04-29 17:21:00,
2013-04-29 12:26:00,67.0,44.9,29.53,SSE,159,10.0,16.0,45,0.00,,,0.00,914,Wunderground v.1.15,2013-04-29 17:26:00,
2013-04-29 12:31:00,67.4,47.0,29.53,SSE,152,15.0,15.0,48,0.00,,,0.00,919,Wunderground v.1.15,2013-04-29 17:31:00,
2013-04-29 12:36:00,67.6,47.2,29.53,SSE,152,11.0,20.0,48,0.00,,,0.00,925,Wunderground v.1.15,2013-04-29 17:36:00,
2013-04-29 12:41:00,68.0,46.4,29.53,SSE,155,12.0,14.0,46,0.00,,,0.00,932,Wunderground v.1.15,2013-04-29 17:41:00,
2013-04-29 12:46:00,68.7,45.3,29.52,South,170,10.0,21.0,43,0.00,,,0.00,933,Wunderground v.1.15,2013-04-29 17:46:00,
2013-04-29 12:51:00,68.7,48.2,29.52,South,179,13.0,15.0,48,0.00,,,0.00,939,Wunderground v.1.15,2013-04-29 17:51:00,
2013-04-29 12:56:00,69.3,49.3,29.52,South,178,17.0,22.0,49,0.00,,,0.00,944,Wunderground v.1.15,2013-04-29 17:56:00,
2013-04-29 13:01:00,69.6,47.9,29.52,SSW,194,16.0,18.0,46,0.00,,,0.00,946,Wunderground v.1.15,2013-04-29 18:01:00,
2013-04-29 13:06:00,69.6,46.7,29.52,ESE,115,11.0,18.0,44,0.00,,,0.00,946,Wunderground v.1.15,2013-04-29 18:06:00,
2013-04-29 13:11:00,69.9,48.2,29.51,SE,146,9.0,12.0,46,0.00,,,0.00,954,Wunderground v.1.15,2013-04-29 18:11:00,
2013-04-29 13:16:00,70.1,47.8,29.51,South,189,9.0,16.0,45,0.00,,,0.00,954,Wunderground v.1.15,2013-04-29 18:16:00,
2013-04-29 13:21:00,70.6,47.0,29.51,SSE,155,10.0,14.0,43,0.00,,,0.00,958,Wunderground v.1.15,2013-04-29 18:21:00,
2013-04-29 13:26:00,70.8,46.6,29.51,South,182,7.0,16.0,42,0.00,,,0.00,958,Wunderground v.1.15,2013-04-29 18:26:00,
2013-04-29 13:31:00,71.2,49.4,29.50,South,173,11.0,17.0,46,0.00,,,0.00,960,Wunderground v.1.15,2013-04-29 18:31:00,
2013-04-29 13:36:00,71.6,47.9,29.50,South,177,8.0,17.0,43,0.00,,,0.00,958,Wunderground v.1.15,2013-04-29 18:36:00,
2013-04-29 13:41:00,71.6,46.0,29.50,SE,146,9.0,18.0,40,0.00,,,0.00,960,Wunderground v.1.15,2013-04-29 18:41:00,
2013-04-29 13:47:00,71.7,46.1,29.49,SSE,160,9.0,18.0,40,0.00,,,0.00,958,Wunderground v.1.15,2013-04-29 18:47:00,
2013-04-29 13:52:00,71.8,46.2,29.49,SSE,150,8.0,11.0,40,0.00,,,0.00,958,Wunderground v.1.15,2013-04-29 18:52:00,
2013-04-29 13:57:00,71.9,46.9,29.49,SSW,203,8.0,19.0,41,0.00,,,0.00,958,Wunderground v.1.15,2013-04-29 18:57:00,
2013-04-29 14:01:00,72.2,45.9,29.49,South,174,10.0,17.0,39,0.00,,,0.00,954,Wunderground v.1.15,2013-04-29 19:01:00,
2013-04-29 14:07:00,72.8,48.4,29.48,SW,224,6.0,18.0,42,0.00,,,0.00,953,Wunderground v.1.15,2013-04-29 19:07:00,
2013-04-29 14:12:00,73.3,46.8,29.48,SSW,206,10.0,21.0,39,0.00,,,0.00,949,Wunderground v.1.15,2013-04-29 19:12:00,
2013-04-29 14:17:00,73.0,45.9,29.48,SE,138,10.0,21.0,38,0.00,,,0.00,944,Wunderground v.1.15,2013-04-29 19:17:00,
2013-04-29 14:22:00,73.1,45.3,29.48,SW,217,13.0,15.0,37,0.00,,,0.00,947,Wunderground v.1.15,2013-04-29 19:22:00,
2013-04-29 14:27:00,73.3,44.7,29.48,SSW,213,6.0,18.0,36,0.00,,,0.00,940,Wunderground v.1.15,2013-04-29 19:27:00,
2013-04-29 14:32:00,73.8,45.2,29.47,South,180,14.0,17.0,36,0.00,,,0.00,937,Wunderground v.1.15,2013-04-29 19:32:00,
2013-04-29 14:37:00,74.0,45.3,29.47,SSE,168,7.0,17.0,36,0.00,,,0.00,933,Wunderground v.1.15,2013-04-29 19:37:00,
2013-04-29 14:42:00,74.5,46.5,29.47,South,171,12.0,19.0,37,0.00,,,0.00,925,Wunderground v.1.15,2013-04-29 19:42:00,
2013-04-29 14:47:00,74.5,46.5,29.46,SSW,208,12.0,19.0,37,0.00,,,0.00,919,Wunderground v.1.15,2013-04-29 19:47:00,
2013-04-29 14:52:00,74.8,46.1,29.45,SSE,155,19.0,19.0,36,0.00,,,0.00,912,Wunderground v.1.15,2013-04-29 19:52:00,
2013-04-29 14:57:00,74.7,46.0,29.45,SSE,158,6.0,20.0,36,0.00,,,0.00,907,Wunderground v.1.15,2013-04-29 19:57:00,
2013-04-29 15:02:00,75.4,47.3,29.45,SSW,204,8.0,11.0,37,0.00,,,0.00,904,Wunderground v.1.15,2013-04-29 20:02:00,
2013-04-29 15:07:00,75.4,46.6,29.44,South,182,15.0,20.0,36,0.00,,,0.00,898,Wunderground v.1.15,2013-04-29 20:07:00,
2013-04-29 15:12:00,75.9,46.3,29.44,SSW,211,9.0,19.0,35,0.00,,,0.00,893,Wunderground v.1.15,2013-04-29 20:12:00,
2013-04-29 15:17:00,75.7,46.1,29.44,SSW,207,11.0,19.0,35,0.00,,,0.00,742,Wunderground v.1.15,2013-04-29 20:17:00,
2013-04-29 15:22:00,75.5,44.4,29.43,South,178,3.0,10.0,33,0.00,,,0.00,545,Wunderground v.1.15,2013-04-29 20:22:00,
2013-04-29 15:27:00,75.8,46.2,29.43,SSW,202,10.0,16.0,35,0.00,,,0.00,870,Wunderground v.1.15,2013-04-29 20:27:00,
2013-04-29 15:32:00,76.1,46.5,29.43,South,184,7.0,10.0,35,0.00,,,0.00,870,Wunderground v.1.15,2013-04-29 20:32:00,
2013-04-29 15:37:00,76.9,48.6,29.42,SSW,198,12.0,20.0,37,0.00,,,0.00,865,Wunderground v.1.15,2013-04-29 20:37:00,
2013-04-29 15:42:00,76.5,47.6,29.42,SSW,193,14.0,14.0,36,0.00,,,0.00,851,Wunderground v.1.15,2013-04-29 20:42:00,
2013-04-29 15:47:00,76.3,47.4,29.42,South,184,17.0,22.0,36,0.00,,,0.00,779,Wunderground v.1.15,2013-04-29 20:47:00,
2013-04-29 15:52:00,76.3,47.4,29.41,South,187,14.0,20.0,36,0.00,,,0.00,424,Wunderground v.1.15,2013-04-29 20:52:00,
2013-04-29 15:57:00,76.2,46.5,29.41,South,190,12.0,24.0,35,0.00,,,0.00,830,Wunderground v.1.15,2013-04-29 20:57:00,
2013-04-29 16:02:00,76.8,47.8,29.41,South,185,14.0,20.0,36,0.00,,,0.00,795,Wunderground v.1.15,2013-04-29 21:02:00,
2013-04-29 16:07:00,76.9,46.4,29.41,SSE,168,14.0,21.0,34,0.00,,,0.00,598,Wunderground v.1.15,2013-04-29 21:07:00,
2013-04-29 16:12:00,76.9,47.9,29.41,SSW,192,11.0,19.0,36,0.00,,,0.00,557,Wunderground v.1.15,2013-04-29 21:12:00,
2013-04-29 16:17:00,76.9,47.2,29.40,SSE,165,12.0,24.0,35,0.00,,,0.00,657,Wunderground v.1.15,2013-04-29 21:17:00,
2013-04-29 16:22:00,76.9,45.6,29.40,SW,228,8.0,17.0,33,0.00,,,0.00,615,Wunderground v.1.15,2013-04-29 21:22:00,
2013-04-29 16:27:00,76.6,43.7,29.40,SSW,203,10.0,17.0,31,0.00,,,0.00,494,Wunderground v.1.15,2013-04-29 21:27:00,
2013-04-29 16:32:00,77.0,45.7,29.39,SSW,213,7.0,18.0,33,0.00,,,0.00,422,Wunderground v.1.15,2013-04-29 21:32:00,
2013-04-29 16:37:00,77.3,45.9,29.39,South,188,13.0,22.0,33,0.00,,,0.00,661,Wunderground v.1.15,2013-04-29 21:37:00,
2013-04-29 16:42:00,77.6,45.4,29.38,SSW,200,12.0,19.0,32,0.00,,,0.00,645,Wunderground v.1.15,2013-04-29 21:42:00,
2013-04-29 16:47:00,77.7,47.1,29.38,South,190,18.0,25.0,34,0.00,,,0.00,504,Wunderground v.1.15,2013-04-29 21:47:00,
2013-04-29 16:52:00,76.9,47.2,29.38,South,181,18.0,21.0,35,0.00,,,0.00,267,Wunderground v.1.15,2013-04-29 21:52:00,
2013-04-29 16:57:00,77.3,45.1,29.37,SSW,194,12.0,21.0,32,0.00,,,0.00,670,Wunderground v.1.15,2013-04-29 21:57:00,
2013-04-29 17:02:00,77.3,47.5,29.38,SSW,192,11.0,17.0,35,0.00,,,0.00,503,Wunderground v.1.15,2013-04-29 22:02:00,
2013-04-29 17:07:00,77.0,46.5,29.37,SSW,196,18.0,21.0,34,0.00,,,0.00,397,Wunderground v.1.15,2013-04-29 22:07:00,
2013-04-29 17:12:00,76.9,45.6,29.37,South,183,15.0,22.0,33,0.00,,,0.00,513,Wunderground v.1.15,2013-04-29 22:12:00,
2013-04-29 17:17:00,77.2,45.9,29.37,SSW,206,17.0,22.0,33,0.00,,,0.00,531,Wunderground v.1.15,2013-04-29 22:17:00,
2013-04-29 17:22:00,77.5,46.1,29.36,SW,217,14.0,22.0,33,0.00,,,0.00,450,Wunderground v.1.15,2013-04-29 22:22:00,
2013-04-29 17:27:00,77.1,45.8,29.36,SSW,194,16.0,22.0,33,0.00,,,0.00,387,Wunderground v.1.15,2013-04-29 22:27:00,
2013-04-29 17:32:00,76.9,44.8,29.36,South,185,10.0,17.0,32,0.00,,,0.00,295,Wunderground v.1.15,2013-04-29 22:32:00,
2013-04-29 17:37:00,76.6,44.5,29.36,SSW,201,10.0,19.0,32,0.00,,,0.00,251,Wunderground v.1.15,2013-04-29 22:37:00,
2013-04-29 17:42:00,76.4,46.7,29.35,SSW,197,13.0,14.0,35,0.00,,,0.00,255,Wunderground v.1.15,2013-04-29 22:42:00,
2013-04-29 17:47:00,76.7,46.2,29.35,South,178,15.0,18.0,34,0.00,,,0.00,311,Wunderground v.1.15,2013-04-29 22:47:00,
2013-04-29 17:52:00,77.0,46.5,29.35,South,184,8.0,14.0,34,0.00,,,0.00,394,Wunderground v.1.15,2013-04-29 22:52:00,
2013-04-29 17:57:00,77.6,46.2,29.35,South,173,15.0,17.0,33,0.00,,,0.00,438,Wunderground v.1.15,2013-04-29 22:57:00,
2013-04-29 18:02:00,78.1,46.6,29.35,South,186,14.0,17.0,33,0.00,,,0.00,473,Wunderground v.1.15,2013-04-29 23:02:00,
2013-04-29 18:07:00,78.4,45.3,29.35,South,190,16.0,19.0,31,0.00,,,0.00,506,Wunderground v.1.15,2013-04-29 23:07:00,
2013-04-29 18:12:00,78.2,45.9,29.35,SSW,194,13.0,18.0,32,0.00,,,0.00,239,Wunderground v.1.15,2013-04-29 23:12:00,
2013-04-29 18:17:00,77.4,45.2,29.35,South,172,15.0,21.0,32,0.00,,,0.00,227,Wunderground v.1.15,2013-04-29 23:17:00,
2013-04-29 18:22:00,77.0,44.9,29.35,SSW,192,13.0,17.0,32,0.00,,,0.00,269,Wunderground v.1.15,2013-04-29 23:22:00,
2013-04-29 18:27:00,77.4,45.2,29.35,SSW,205,10.0,21.0,32,0.00,,,0.00,244,Wunderground v.1.15,2013-04-29 23:27:00,
2013-04-29 18:32:00,77.1,47.3,29.34,SSW,199,16.0,17.0,35,0.00,,,0.00,111,Wunderground v.1.15,2013-04-29 23:32:00,
2013-04-29 18:37:00,76.7,44.6,29.34,SSE,167,11.0,17.0,32,0.00,,,0.00,100,Wunderground v.1.15,2013-04-29 23:37:00,
2013-04-29 18:42:00,76.2,45.0,29.34,SSW,198,12.0,22.0,33,0.00,,,0.00,93,Wunderground v.1.15,2013-04-29 23:42:00,
2013-04-29 18:47:00,75.9,45.5,29.34,SSW,192,9.0,22.0,34,0.00,,,0.00,100,Wunderground v.1.15,2013-04-29 23:47:00,
2013-04-29 18:52:00,76.0,44.8,29.33,SSW,193,13.0,16.0,33,0.00,,,0.00,155,Wunderground v.1.15,2013-04-29 23:52:00,
2013-04-29 18:57:00,76.1,45.7,29.33,South,186,10.0,17.0,34,0.00,,,0.00,151,Wunderground v.1.15,2013-04-29 23:57:00,
2013-04-29 19:02:00,76.4,45.9,29.33,South,170,11.0,17.0,34,0.00,,,0.00,179,Wunderground v.1.15,2013-04-30 00:02:00,
2013-04-29 19:07:00,76.4,47.5,29.33,SSW,198,11.0,17.0,36,0.00,,,0.00,160,Wunderground v.1.15,2013-04-30 00:07:00,
2013-04-29 19:12:00,76.6,45.3,29.33,South,178,12.0,18.0,33,0.00,,,0.00,137,Wunderground v.1.15,2013-04-30 00:12:00,
2013-04-29 19:17:00,76.6,45.3,29.33,South,175,13.0,18.0,33,0.00,,,0.00,116,Wunderground v.1.15,2013-04-30 00:17:00,
2013-04-29 19:22:00,76.4,45.2,29.32,South,178,13.0,21.0,33,0.00,,,0.00,97,Wunderground v.1.15,2013-04-30 00:22:00,
2013-04-29 19:27:00,76.1,44.9,29.32,South,187,15.0,22.0,33,0.00,,,0.00,84,Wunderground v.1.15,2013-04-30 00:27:00,
2013-04-29 19:32:00,75.5,45.2,29.32,South,190,16.0,18.0,34,0.00,,,0.00,76,Wunderground v.1.15,2013-04-30 00:32:00,
2013-04-29 19:37:00,75.2,45.7,29.32,SSE,166,13.0,18.0,35,0.00,,,0.00,62,Wunderground v.1.15,2013-04-30 00:37:00,
2013-04-29 19:42:00,74.9,44.6,29.32,South,175,12.0,17.0,34,0.00,,,0.00,49,Wunderground v.1.15,2013-04-30 00:42:00,
2013-04-29 19:47:00,74.8,44.5,29.31,South,173,13.0,17.0,34,0.00,,,0.00,44,Wunderground v.1.15,2013-04-30 00:47:00,
2013-04-29 19:52:00,74.4,45.0,29.31,South,184,12.0,16.0,35,0.00,,,0.00,40,Wunderground v.1.15,2013-04-30 00:52:00,
2013-04-29 19:57:00,74.1,45.4,29.31,South,169,11.0,16.0,36,0.00,,,0.00,37,Wunderground v.1.15,2013-04-30 00:57:00,
2013-04-29 20:02:00,73.5,44.2,29.31,SSE,165,12.0,13.0,35,0.00,,,0.00,32,Wunderground v.1.15,2013-04-30 01:02:00,
2013-04-29 20:07:00,73.1,44.5,29.31,South,169,11.0,14.0,36,0.00,,,0.00,19,Wunderground v.1.15,2013-04-30 01:07:00,
2013-04-29 20:12:00,72.8,44.3,29.31,South,176,13.0,14.0,36,0.00,,,0.00,12,Wunderground v.1.15,2013-04-30 01:12:00,
2013-04-29 20:17:00,72.6,44.1,29.31,SSE,167,11.0,14.0,36,0.00,,,0.00,7,Wunderground v.1.15,2013-04-30 01:17:00,
2013-04-29 20:22:00,72.1,45.1,29.30,SSE,165,10.0,13.0,38,0.00,,,0.00,5,Wunderground v.1.15,2013-04-30 01:22:00,
2013-04-29 20:27:00,71.3,44.4,29.30,SSE,162,13.0,13.0,38,0.00,,,0.00,0,Wunderground v.1.15,2013-04-30 01:27:00,
2013-04-29 20:32:00,70.8,44.6,29.30,South,178,11.0,11.0,39,0.00,,,0.00,0,Wunderground v.1.15,2013-04-30 01:32:00,
2013-04-29 20:37:00,70.4,44.9,29.30,South,171,10.0,14.0,40,0.00,,,0.00,0,Wunderground v.1.15,2013-04-30 01:37:00,
2013-04-29 20:42:00,70.0,44.6,29.30,SSE,163,11.0,14.0,40,0.00,,,0.00,0,Wunderground v.1.15,2013-04-30 01:42:00,
2013-04-29 20:47:00,69.7,44.3,29.30,SSE,154,13.0,14.0,40,0.00,,,0.00,0,Wunderground v.1.15,2013-04-30 01:47:00,
2013-04-29 20:52:00,69.5,44.8,29.30,SSE,162,11.0,15.0,41,0.00,,,0.00,0,Wunderground v.1.15,2013-04-30 01:52:00,
2013-04-29 20:57:00,69.3,44.6,29.30,SSE,163,12.0,15.0,41,0.00,,,0.00,0,Wunderground v.1.15,2013-04-30 01:57:00,
2013-04-29 21:02:00,69.1,44.4,29.29,SSE,166,12.0,14.0,41,0.00,,,0.00,0,Wunderground v.1.15,2013-04-30 02:02:00,
2013-04-29 21:07:00,68.8,44.8,29.29,SSE,163,9.0,16.0,42,0.00,,,0.00,0,Wunderground v.1.15,2013-04-30 02:07:00,
2013-04-29 21:12:00,68.6,45.2,29.29,SSE,154,11.0,14.0,43,0.00,,,0.00,0,Wunderground v.1.15,2013-04-30 02:12:00,
2013-04-29 21:17:00,68.6,45.2,29.29,SSE,166,11.0,16.0,43,0.00,,,0.00,0,Wunderground v.1.15,2013-04-30 02:17:00,
2013-04-29 21:22:00,68.5,45.1,29.29,SSE,165,13.0,15.0,43,0.00,,,0.00,0,Wunderground v.1.15,2013-04-30 02:22:00,
2013-04-29 21:27:00,68.4,45.0,29.29,SSE,166,14.0,18.0,43,0.00,,,0.00,0,Wunderground v.1.15,2013-04-30 02:27:00,
2013-04-29 21:32:00,68.2,44.8,29.29,South,173,13.0,17.0,43,0.00,,,0.00,0,Wunderground v.1.15,2013-04-30 02:32:00,
2013-04-29 21:37:00,68.1,45.4,29.29,SSE,161,16.0,17.0,44,0.00,,,0.00,0,Wunderground v.1.15,2013-04-30 02:37:00,
2013-04-29 21:42:00,68.1,45.4,29.29,South,169,13.0,14.0,44,0.00,,,0.00,0,Wunderground v.1.15,2013-04-30 02:42:00,
2013-04-29 21:47:00,68.9,44.9,29.29,South,171,13.0,18.0,42,0.00,,,0.00,0,Wunderground v.1.15,2013-04-30 02:47:00,
2013-04-29 21:52:00,69.0,45.6,29.29,South,185,14.0,17.0,43,0.00,,,0.00,0,Wunderground v.1.15,2013-04-30 02:52:00,
2013-04-29 21:57:00,68.9,45.5,29.29,South,171,11.0,17.0,43,0.00,,,0.00,0,Wunderground v.1.15,2013-04-30 02:57:00,
2013-04-29 22:02:00,68.8,45.4,29.29,South,173,14.0,16.0,43,0.00,,,0.00,0,Wunderground v.1.15,2013-04-30 03:02:00,
2013-04-29 22:07:00,68.6,45.8,29.28,SSE,165,13.0,18.0,44,0.00,,,0.00,0,Wunderground v.1.15,2013-04-30 03:07:00,
2013-04-29 22:12:00,68.6,45.8,29.28,South,171,14.0,15.0,44,0.00,,,0.00,0,Wunderground v.1.15,2013-04-30 03:12:00,
2013-04-29 22:17:00,68.6,45.8,29.28,SSW,195,8.0,17.0,44,0.00,,,0.00,0,Wunderground v.1.15,2013-04-30 03:17:00,
2013-04-29 22:22:00,68.3,46.1,29.28,South,189,15.0,15.0,45,0.00,,,0.00,0,Wunderground v.1.15,2013-04-30 03:22:00,
2013-04-29 22:27:00,68.3,46.1,29.28,South,178,9.0,15.0,45,0.00,,,0.00,0,Wunderground v.1.15,2013-04-30 03:27:00,
2013-04-29 22:32:00,68.3,46.7,29.28,South,169,13.0,16.0,46,0.00,,,0.00,0,Wunderground v.1.15,2013-04-30 03:32:00,
2013-04-29 22:37:00,68.4,46.2,29.28,South,178,13.0,18.0,45,0.00,,,0.00,0,Wunderground v.1.15,2013-04-30 03:37:00,
2013-04-29 22:42:00,68.6,46.4,29.28,South,174,9.0,13.0,45,0.00,,,0.00,0,Wunderground v.1.15,2013-04-30 03:42:00,
2013-04-29 22:47:00,68.2,46.6,29.28,South,171,10.0,14.0,46,0.00,,,0.00,0,Wunderground v.1.15,2013-04-30 03:47:00,
2013-04-29 22:52:00,67.8,46.8,29.28,South,182,12.0,13.0,47,0.00,,,0.00,0,Wunderground v.1.15,2013-04-30 03:52:00,
2013-04-29 22:57:00,67.6,46.6,29.28,South,178,10.0,14.0,47,0.00,,,0.00,0,Wunderground v.1.15,2013-04-30 03:57:00,
2013-04-29 23:01:00,67.6,46.6,29.27,South,184,8.0,12.0,47,0.00,,,0.00,0,Wunderground v.1.15,2013-04-30 04:01:00,
2013-04-29 23:06:00,67.3,46.9,29.27,South,184,12.0,14.0,48,0.00,,,0.00,0,Wunderground v.1.15,2013-04-30 04:06:00,
2013-04-29 23:11:00,67.2,47.4,29.27,SSW,194,11.0,14.0,49,0.00,,,0.00,0,Wunderground v.1.15,2013-04-30 04:11:00,
2013-04-29 23:16:00,67.0,47.2,29.27,SSW,192,10.0,15.0,49,0.00,,,0.00,0,Wunderground v.1.15,2013-04-30 04:16:00,
2013-04-29 23:21:00,66.8,47.0,29.27,South,190,12.0,14.0,49,0.00,,,0.00,0,Wunderground v.1.15,2013-04-30 04:21:00,
2013-04-29 23:26:00,66.3,47.6,29.27,South,190,11.0,14.0,51,0.00,,,0.00,0,Wunderground v.1.15,2013-04-30 04:26:00,
2013-04-29 23:31:00,66.2,47.5,29.27,South,177,10.0,13.0,51,0.00,,,0.00,0,Wunderground v.1.15,2013-04-30 04:31:00,
2013-04-29 23:36:00,66.0,47.9,29.26,SSW,194,8.0,13.0,52,0.00,,,0.00,0,Wunderground v.1.15,2013-04-30 04:36:00,
2013-04-29 23:41:00,65.7,48.1,29.26,SSW,192,7.0,11.0,53,0.00,,,0.00,0,Wunderground v.1.15,2013-04-30 04:41:00,
2013-04-29 23:46:00,65.9,48.3,29.26,SSW,198,8.0,11.0,53,0.00,,,0.00,0,Wunderground v.1.15,2013-04-30 04:46:00,
2013-04-29 23:51:00,65.7,48.6,29.26,SSW,207,7.0,8.0,54,0.00,,,0.00,0,Wunderground v.1.15,2013-04-30 04:51:00,
2013-04-29 23:56:00,65.8,48.7,29.26,SSW,199,7.0,9.0,54,0.00,,,0.00,0,Wunderground v.1.15,2013-04-30 04:56:00,